#timestamp,LO_Frequency,Hit,StdDev 
1500926415.8,286046999.9,N,1.5
1500926435.2,286047000.1,N,1.5
1500926455.0,286047000.5,N,1.5
1500926455.9,286047000.5,N,1.5
1500926475.8,286047000.2,N,1.5
1500926495.6,286047000.1,N,1.5
1500926515.5,286047000.4,N,1.5
1500926535.3,286047000.9,N,1.5
1500926555.1,286046998.2,N,1.5
1500926575.9,286046998.3,N,1.6
1500926595.7,286046998.7,N,1.6
1500926615.6,286046999.6,N,1.6
1500926635.4,286046997.2,N,1.7
1500926655.2,286046997.7,N,1.7
1500926675.1,286046995.3,N,1.8
1500926676.0,286046995.3,N,2.0
1500926695.8,286046997.9,N,2.0
1500926715.6,286046994.9,N,2.1
1500926735.5,286046997.6,N,2.1
1500926755.3,286046997.8,N,2.1
1500926775.2,286046995.8,N,2.2
1500926795.9,286046996.0,N,2.2
1500926815.7,286046993.8,N,2.3
1500926835.6,286046996.3,N,2.4
1500926855.4,286046996.3,N,2.4
1500926875.3,286046993.4,N,2.5
1500926895.1,286046993.5,N,2.6
1500926896.0,286046993.5,N,2.7
1500926915.8,286046994.5,N,2.8
1500926935.7,286046993.9,N,2.9
1500926955.5,286046994.3,N,2.9
1500926975.4,286046991.9,N,3.0
1500926995.2,286046991.7,N,3.1
1500927015.0,286046994.1,N,3.1
1500927015.9,286046994.1,N,3.2
1500927035.8,286046992.8,N,3.2
1500927055.6,286046992.0,N,3.3
1500927075.4,286046992.4,N,3.4
1500927095.3,286046992.5,N,3.4
1500927115.1,286046990.5,N,3.5
1500927135.9,286046990.5,N,3.5
1500927155.7,286046991.3,N,3.6
1500927175.5,286046940.1,Y,7.6
1500927195.4,286046993.0,N,7.6
1500927215.2,286046992.9,N,7.6
1500927235.1,286046993.0,N,7.5
1500927236.0,286046993.0,N,7.5
1500927255.8,286046990.2,N,7.5
1500927275.6,286046990.5,N,7.5
1500927295.5,286046990.1,N,7.6
1500927315.3,286046990.4,N,7.6
1500927335.2,286046993.1,N,7.6
1500927355.9,286046993.1,N,7.6
1500927375.7,286046993.1,N,7.6
1500927395.6,286046992.7,N,7.6
1500927415.4,286046992.3,N,7.5
1500927435.2,286046990.7,N,7.5
1500927455.1,286046990.1,N,7.6
1500927456.0,286046990.1,N,7.6
1500927475.8,286046990.5,N,7.6
1500927495.7,286046990.6,N,7.6
1500927515.5,286046993.2,N,7.5
1500927535.3,286046992.6,N,7.4
1500927555.2,286046993.2,N,7.4
1500927575.0,286046991.8,N,7.3
1500927575.9,286046991.8,N,7.3
1500927595.8,286046992.5,N,7.3
1500927615.6,286046990.4,N,7.3
1500927635.4,286046990.6,N,7.2
1500927655.3,286046990.4,N,7.2
1500927675.1,286046993.2,N,7.1
1500927695.8,286046990.6,N,7.1
1500927715.7,286046991.1,N,7.1
1500927735.5,286046991.1,N,7.0
1500927755.4,286046990.9,N,7.0
1500927775.2,286046991.5,N,6.9
1500927795.0,286046988.5,N,6.9
1500927795.9,286046988.5,N,6.9
1500927815.8,286046991.2,N,6.8
1500927835.7,286046991.1,N,6.8
1500927855.6,286046990.8,N,6.7
1500927875.4,286046991.1,N,6.6
1500927895.2,286046991.4,N,6.6
1500927915.1,286046990.4,N,6.5
1500927916.0,286046990.4,N,6.5
1500927935.8,286046993.2,N,6.5
1500927955.7,286046990.2,N,6.4
1500927975.5,286046990.9,N,6.4
1500927995.3,286046991.4,N,6.3
1500928015.2,286046990.1,N,6.3
1500928035.0,286046990.4,N,6.3
1500928035.9,286046990.4,N,6.3
1500928055.7,286046990.2,N,6.3
1500928075.6,286046993.1,N,6.2
1500928095.4,286046991.1,N,6.2
1500928115.3,286046991.6,N,6.2
1500928135.1,286046989.2,N,6.1
1500928155.8,286046988.8,N,6.1
1500928175.7,286046989.4,N,6.1
1500928195.5,286046989.7,N,6.1
1500928215.3,286046989.8,N,6.1
1500928235.1,286046989.2,N,6.1
1500928255.9,286046989.5,N,6.1
1500928275.7,286046989.2,N,6.0
1500928295.6,286046991.2,N,6.0
1500928315.4,286046991.4,N,6.0
1500928335.2,286046990.6,N,6.0
1500928355.1,286046990.1,N,6.0
1500928356.0,286046990.1,N,6.0
1500928375.8,286046990.3,N,6.0
1500928395.6,286046990.9,N,6.0
1500928415.5,286046990.8,N,6.0
1500928435.3,286046990.5,N,6.0
1500928455.2,286046993.1,N,6.0
1500928475.9,286046990.3,N,6.0
1500928495.7,286046992.3,N,6.0
1500928515.6,286046990.6,N,6.0
1500928535.4,286046990.7,N,1.3
1500928555.3,286046993.1,Y,1.3
1500928575.1,286047000.6,N,1.7
1500928576.0,286047000.6,N,2.0
1500928595.8,286047000.4,N,2.2
1500928615.7,286047001.8,N,2.5
1500928635.5,286047001.4,N,2.7
1500928655.4,286047002.0,N,3.0
1500928675.2,286047004.4,N,3.3
1500928695.0,286047003.0,N,3.5
1500928695.9,286047003.0,N,3.7
1500928715.8,286047001.4,N,3.9
1500928735.6,286047003.6,N,4.1
1500928755.4,286047004.2,N,4.3
1500928775.3,286047001.4,N,4.4
1500928795.1,286047003.7,N,4.6
1500928815.9,286047005.6,N,4.8
1500928835.7,286047005.5,N,5.0
1500928855.5,286047005.4,N,5.1
1500928875.4,286047006.0,N,5.3
1500928895.2,286047003.1,N,5.4
1500928915.1,286047005.6,N,5.6
1500928916.0,286047005.6,N,5.7
1500928935.8,286047011.9,N,6.1
1500928955.6,286047005.8,N,6.2
1500928975.5,286047005.3,N,6.3
1500928995.7,286047004.7,N,6.4
1500929015.6,286047007.5,N,6.5
1500929035.4,286047007.6,N,6.7
1500929055.2,286047004.9,N,6.7
1500929075.1,286047004.5,N,6.8
1500929076.0,286047004.5,N,6.8
1500929095.8,286047004.6,N,6.9
1500929115.7,286047005.1,N,6.9
1500929135.5,286047007.6,N,7.0
1500929155.3,286047006.7,N,7.1
1500929175.2,286047006.1,N,7.1
1500929195.0,286047006.6,N,7.1
1500929195.9,286047006.6,N,7.2
1500929215.7,286047007.5,N,7.2
1500929235.6,286047006.6,N,7.2
1500929255.4,286047004.9,N,7.2
1500929275.3,286047007.2,N,7.3
1500929295.1,286047007.5,N,7.3
1500929296.0,286047007.5,N,7.3
1500929315.8,286047007.1,N,7.3
1500929335.7,286047006.2,N,7.3
1500929355.5,286047009.1,N,7.3
1500929375.4,286047008.7,N,7.3
1500929395.2,286047006.8,N,7.3
1500929415.0,286047006.1,N,7.3
1500929415.9,286047006.1,N,7.2
1500929435.8,286047006.2,N,7.2
1500929455.6,286047008.6,N,7.2
1500929475.5,286047010.7,N,7.2
1500929495.3,286047010.2,N,7.1
1500929515.1,286047008.8,N,7.0
1500929535.9,286047008.2,N,6.9
1500929555.7,286047006.2,N,6.8
1500929575.6,286047007.9,N,6.7
1500929595.4,286047006.6,N,6.6
1500929615.2,286047006.2,N,6.4
1500929635.1,286047008.9,N,6.3
1500929636.0,286047008.9,N,6.1
1500929655.8,286047009.0,N,6.0
1500929675.7,286047009.0,N,5.9
1500929695.5,286047009.2,N,5.7
1500929715.3,286047008.7,N,5.5
1500929735.2,286047008.9,N,5.3
1500929755.0,286047006.2,N,5.1
1500929755.9,286047006.2,N,4.8
1500929775.8,286047008.5,N,4.6
1500929795.6,286047010.8,N,4.4
1500929815.4,286047008.9,N,4.1
1500929835.3,286047007.8,N,3.8
1500929855.1,286047010.5,N,3.4
1500929875.9,286047010.8,Y,3.5
1500929895.7,286047004.3,N,3.0
1500929915.5,286047001.8,N,2.6
1500929935.4,286047001.7,N,2.6
1500929955.2,286047003.3,N,2.6
1500929975.0,286047003.7,N,2.5
1500929976.0,286047003.7,N,2.5
1500929995.8,286047003.2,N,2.4
